STARLINK-38099

Last updated on Sun Aug 09 2026 00:02:04 GMT+0000 (Coordinated Universal Time)

1 69987U 26159N 26220.55534795 .00137521 00000+0 90703-3 0 9997 2 69987 97.2835 60.5134 0000723 105.8143 254.3202 15.75217409 5709
UTC large
Height (km)
Speed (km/s)
/
Latitude / Longitude
Inclination (degrees)
Orbital Period (minutes)
Azimuth
Elevation
Range (km)
Doppler Factor

Next 0 passes for location: London (51.5072 / 0.1276)

No passes found over London.
STARLINK-38099